Погода Верхний Баскунчак

Хотите узнать прогноз погоды Верхний Баскунчак? Тогда Вам сюда: Погода Верхний Баскунчак

Поиск расширенной информации на нашем сайте:

Полезная информация:

Новости сайта



02.01.2020
Опубликован Долгосрочный прогноз погоды по городам России и ближнего зарубежья на январь 2020 года.
Карты: Прогноз на январь и февраль 2020 года, Сравнение прогнозируемой аномалии приземной температуры воздуха на январь 2020 года по разным моделям.




Погода Верхний Баскунчак - сегодня

Время (UTC), дата Ветер
(°,м/с) 
Видим.   Явления Облачность Т
(°С)
Тd
(°С)
f(%) Тe
(°С)
Pmin
(гПа)
dP
(гПа)
Po
(мм)
O2
(г/м3)
Тmin Tmax R s Состояние
почвы
15 18.10.20 150 (ЮВ) 4{12}  20000 м    8/8 600 м 
[Sc]
+22.7 +8.3 40 +23  1009.9  -1.9  754  279    +24.4       
18 18.10.20 180 (Ю) 20000 м    6/0 верхняя 
[Ci fib]
+15.1 +12.1 82 +19  1015.9  0.4  759  287           
21 18.10.20 180 (Ю) 4000 м  дымка  8/0 верхняя 
[Ci fib]
+13.5 +12.6 94 +19  1015.7  -0.2  759  289           
00 19.10.20 210 (ЮЗ) 1000 м  дымка  10/10 600 м 
[Sc]
+13.6 +13.6 100 +19  1016.3  0.6  759  289           
03 19.10.20 230 (ЮЗ) 1000 м  дымка  6/0 верхняя 
[Ci fib]
+12.2 +12.2 100 +17  1016.3  759  290  +12.2         
06 19.10.20 250 (З) 1000 м  дымка  9/9 600 м 
[Sc]
+12.9 +12.9 100 +18  1017.1  0.8  760  290  +11.8         
09 19.10.20 320 (СЗ) 20000 м    8/6 600 м верхняя 
[Sc|Ci sp]
+20 +12 60 +24  1016.5  -0.5  759  283           
12 19.10.20 350 (С) 20000 м    8/6 600 м верхняя 
[Sc|Ci sp]
+19.8 +9.4 51 +21  1015.5  -0.9  759  283           
15 19.10.20 360 (С) 20000 м    8/4 600 м верхняя 
[Sc|Ci sp]
+15.1 +9.2 68 +16  1016  0.4  759  288    +21.1       
18 19.10.20 010 (С) 20000 м    9/9 600 м 
[Sc]
+13.7 +8.9 73 +14  1015.7  -0.3  759  290           
21 19.10.20 330 (СЗ) 5{10}  4000 м  ливневой дождь  10/10 600 м кучево-дожд. 
[Cb calv]
+10.4 +8.9 90 +9  1017.3  1.5  760  293           
00 20.10.20 340 (С) 4000 м  слаб. ливневой дождь  10/10 600 м кучево-дожд. 
[Cb calv]
+7.8 +6.8 93 +7  1018.8  1.4  761  297           
03 20.10.20 290 (З) 2000 м  дымка{ливн. осадки}  9/9 600 м 
[Sc]
+7.3 +6.6 95 +8  1020.6  1.8  762  298  +7.3       
06 20.10.20 270 (З) 20000 м  {ливн. осадки}  ясно 
+9.9 +6.8 81 +9  1021.9  1.3  763  296  +6.9         
09 20.10.20 260 (З) 20000 м    4/4 1000 м 
[Cu med, cong]
+13.3 +4.5 55 +13  1021.8  763  293           
12 20.10.20 290 (З) 20000 м    8/8 600 м 
[Sc]
+13.6 +1 42 +13  1021.5  -0.3  763  293           
15 20.10.20 220 (ЮЗ) 20000 м    3/3 600 м 
[Sc]
+8.7 +4.3 74 +9  1021.6  763  297    +14.4       
18 20.10.20 240 (ЮЗ) 20000 м    ясно 
+6.6 +4.3 85 +6  1022.1  0.5  763  300           
21 20.10.20 250 (З) 4000 м  дымка  ясно 
+4 +3.1 94 +4  1022.4  0.2  763  303           
00 21.10.20 250 (З) 4000 м  дымка  ясно 
+2.5 +1.6 94 +2  1022.6  0.3  764  305           
03 21.10.20 270 (З) 4000 м  дымка  3/3 600 м 
[Sc]
+2 +0.6 90 +1  1023.9  1.2  765  306  +1.8         
06 21.10.20 300 (СЗ) 20000 м    ясно 
+6.4 +1.4 70 +5  1025.5  1.7  766  301           
09 21.10.20 280 (З) 5-10{11}  20000 м    3/3 600 м 
[Sc]
+10.1 -2 43 +9  1025.7  0.3  766  298           
12 21.10.20 290 (З) 5{12}  20000 м    4/4 600 м 
[Sc]
+10.3 -2.7 40 +9  1025  -0.8  765  298           
15 21.10.20 300 (СЗ) 20000 м    3/3 600 м 
[Sc]
+6 -1.2 60 +7  1025.9  0.9  766  302    +11.1       
Время (UTC), дата Ветер
(°,м/с) 
Видим.   Явления Облачность Т
(°С)
Тd
(°С)
f(%) Тe
(°С)
Pmin
(гПа)
dP
(гПа)
Po
(мм)
O2
(г/м3)
Тmin Tmax R s Состояние
почвы

Для получения пояснительной информации подведите курсор к названию столбца.

ПОГОДА Верхний Баскунчак - архив

Всё, что Вы хотите узнать о погоде Верхний Баскунчак - удобно и подробно!

Выберите нужную дату (начиная с 1 января 2019* года) и нажмите кнопку "Найти".
Будут отображены архивные сводки погоды по пункту Верхний Баскунчак, начиная с указанной даты.


Отображать данные в формате CSV (для использования в таблицах Excel)


Внимание! Наш архив погоды предназначен исключительно для личного некоммерческого использования в познавательных целях. Если Вам необходимы официальные справки о состоянии погоды (для производственных, юридических, коммерческих и т.п. целей), обращайтесь в органы Росгидромета.

*Примечание: данная дата относится к архиву по метеостанциям СССР (Россия, СНГ, Балтия).
Архив по метеостанциям Зарубежной Европы и Азии (кроме Китая) хранится 10 дней, по другим регионам земного шара (Китай, Африка, Америка, Австралия, Океания) - 1 день.

Верхний Баскунчак - район местоположения метеостанции


Название, широта, долгота, высота метеостанции:
Верхний Баскунчак 48.2°ш. 46.7°д. 34 м над ур. моря [Российская Федерация]

Дополнительная информация

В oтличие oт бoльшинства пoгoдных сайтoв мы публикуем пoдрoбную метеoинфoрмацию в детальнoм прoфессиoнальнoм фoрмате.

Характеристики температуры и влажнoсти вoздуха измеряются на высoте 2 м в тени вдали oт зданий и деревьев.
Скoрoсть ветра измеряется на высoте 10 м (на урoвне рoста челoвека скoрoсть ветра ниже в 1.5-2 раза). Если метеoстанция нахoдится в гoрoде или в лесу, тo скoрoсть ветра занижена на 2-4 м/с пo сравнению с oткрытым местoм. Скoрoсть ветра над акватoриями крупных рек и oзёр, а также на вершинах хoлмoв на 2-5 м/с выше, чем в oбычных услoвиях.
Атмoсфернoе давление в разных тoчках местнoсти мoжет значительнo oтличаться oт давления на метеoстанции, в зависимoсти oт услoвий рельефа (при пoдъёме на 10 м давление пoнижается примернo на 1 мм рт.ст.).